Temp
19 19 19 19 19 19 19 19 19 19 19 19 19 19 18 18 17 17 17 17 17 17 17 17 17 16 17 16 16 16 16 16 16 16 16 16 16 16 15 16 16 16
19 19 19 19 19 19 19 19 19 19 19 19 19 18 18 17 17 17 17 17 17 17 17 17 17 16 17 17 16 16 16 16 16 16 16 16 16 16 16 16 16 16
19 19 19 19 19 19 19 18 18 18 18 18 18 18 17 17 17 17 17 17 18 17 17 17 17 17 17 17 16 16 16 16 16 16 17 17 16 16 16 17 17 16
18 19 19 19 19 18 18 18 18 18 18 18 18 17 17 17 17 17 17 17 17 17 17 17 17 17 17 17 17 17 17 16 17 17 17 17 16 16 17 17 17 17
18 18 19 19 19 18 18 18 18 18 18 18 17 17 17 17 17 17 17 17 17 17 17 17 17 17 17 17 17 17 17 17 17 17 17 18 17 17 17 17 17 17
18 18 18 18 18 18 18 18 18 18 18 17 17 17 17 17 17 17 17 17 17 17 17 17 17 17 17 17 17 17 17 17 17 17 18 18 18 18 17 17 18 17
18 18 18 18 18 18 18 18 18 18 18 17 17 17 17 17 17 17 17 17 17 17 17 17 17 17 17 17 17 17 17 17 17 17 18 18 18 18 18 18 18 18
18 18 18 18 18 18 18 18 18 17 17 17 17 17 17 17 17 17 17 17 17 17 17 17 17 17 17 17 17 17 17 17 17 18 18 18 18 18 18 18 18 18
18 18 18 18 18 18 18 18 18 17 17 17 17 17 17 17 17 17 17 17 17 17 17 17 17 17 17 17 17 18 18 17 18 18 18 18 18 18 19 18 18 18
18 18 18 18 18 18 18 18 17 17 17 17 17 17 17 17 17 17 17 17 17 17 17 17 17 17 17 17 18 18 18 18 18 18 18 19 19 19 19 19 18 18
17 18 18 18 18 18 17 17 17 17 17 17 17 17 17 17 17 17 17 17 17 17 18 18 17 17 17 17 17 18 18 18 18 18 19 19 19 19 19 19 19 18
17 17 17 17 17 17 17 17 17 17 17 17 17 17 17 17 17 17 18 18 18 18 18 18 18 18 18 17 17 17 18 18 18 18 18 18 18 19 19 19 19 18
16 16 17 17 17 16 16 17 17 17 17 17 17 17 17 17 17 17 17 18 18 18 18 18 18 18 18 17 18 17 17 17 17 18 18 18 18 18 18 18 18 18
15 15 16 16 16 16 16 16 16 17 17 17 17 17 17 17 17 17 17 17 17 17 17 17 17 17 17 17 18 18 17 17 17 17 18 18 18 18 18 18 18 18
15 15 15 15 15 15 15 15 16 16 16 17 17 17 17 17 17 17 17 17 17 17 17 16 16 16 17 17 17 17 18 17 17 17 18 18 18 18 18 18 18 18
14 14 14 15 15 15 15 15 15 15 16 16 16 17 17 17 17 17 17 17 17 16 15 15 16 16 16 16 16 17 17 17 17 17 18 18 18 18 18 18 18 18
14 14 14 15 15 15 15 15 14 15 15 15 15 15 16 16 16 16 16 17 16 15 15 15 15 15 16 16 16 16 16 17 17 17 17 18 18 18 18 18 18 18
13 13 13 14 14 14 14 14 14 14 14 14 14 14 14 15 15 15 15 15 14 14 14 14 15 15 15 15 16 16 16 16 17 17 17 17 17 18 18 18 18 18
13 12 12 12 13 13 13 13 13 13 14 14 14 14 14 14 14 13 13 13 13 12 13 13 13 14 15 15 15 15 16 16 17 17 17 17 17 17 17 17 17 17
11 12 11 12 12 12 12 13 13 13 13 13 13 13 13 13 13 12 12 11 11 11 11 12 12 13 13 14 14 15 15 16 16 16 16 16 16 16 16 16 16 17
10 10 10 10 10 11 11 12 12 12 12 12 12 12 12 12 12 12 11 11 11 10 11 11 11 12 12 13 13 14 15 15 15 15 16 16 15 15 15 15 15 15
8 9 9 9 10 10 10 10 11 11 11 11 11 11 11 11 11 11 11 10 10 10 10 10 11 11 12 12 13 13 14 14 14 15 15 15 15 14 15 15 14 14
8 8 8 9 9 9 9 9 10 10 10 11 11 11 10 10 10 10 10 10 10 10 10 10 11 11 11 12 12 13 13 14 14 15 15 14 14 14 14 14 14 14
8 8 8 8 9 9 9 9 9 9 10 10 11 11 10 10 10 10 10 10 10 10 10 10 10 11 12 12 12 13 13 13 14 14 14 14 14 14 14 14 14 13
8 8 8 8 8 8 8 8 8 8 9 10 10 10 10 9 9 9 9 9 9 9 10 10 10 11 11 11 12 12 12 12 13 14 14 13 14 14 14 14 13 13
6 7 7 7 7 7 7 6 6 7 8 8 9 9 8 8 8 8 8 8 9 9 9 9 9 9 10 10 10 11 11 11 11 12 12 12 12 13 13 14 13 13
Height
814 816 818 819 821 822 823 825 826 827 828 829 830 831 832 833 834 835 835 836 836 836 837 837 838 839 840 840 841 842 843 843 844 846 847 848 849 850 851 853 854 854
814 816 818 820 821 823 824 826 827 828 829 830 831 832 833 834 835 835 836 836 836 837 837 837 838 838 839 840 841 842 842 843 844 845 846 847 848 849 851 852 854 855
814 816 818 820 821 823 825 826 828 829 831 832 832 833 834 835 836 836 837 837 837 837 837 838 838 839 839 840 840 841 842 843 843 845 846 847 847 848 849 850 852 854
813 816 818 820 821 823 825 827 829 830 831 832 833 834 835 836 836 837 837 837 838 838 838 838 838 839 840 840 840 841 841 842 843 844 845 846 846 847 848 849 850 852
813 815 817 819 821 823 825 827 829 830 832 833 834 835 836 837 837 838 838 838 839 839 838 839 839 839 840 840 840 841 841 841 842 844 845 845 845 846 847 848 849 851
812 814 817 819 820 823 825 827 829 830 832 833 834 835 836 837 838 838 839 839 839 840 839 839 839 839 840 840 840 841 841 841 842 843 844 844 845 846 847 848 849 850
811 814 817 819 820 822 824 826 828 830 831 833 834 835 836 837 838 838 839 840 840 840 840 840 840 839 840 840 840 841 841 842 842 843 844 844 845 846 847 847 848 849
811 814 816 818 820 822 824 825 828 829 831 832 833 835 835 836 838 838 839 840 840 840 840 840 840 840 840 841 841 841 842 842 843 843 844 844 845 846 847 847 848 848
811 813 816 818 820 822 823 825 827 829 830 832 833 834 835 836 837 838 839 840 840 841 841 841 841 841 841 842 842 842 842 843 843 843 844 845 845 846 847 848 848 849
810 813 815 818 820 822 823 825 826 828 830 831 833 834 835 836 837 838 839 840 841 841 842 842 842 842 842 843 843 843 843 843 844 844 845 845 846 846 847 848 849 850
810 813 815 817 820 821 823 825 826 828 829 831 832 834 835 836 837 838 839 839 840 841 842 843 843 843 843 843 844 844 844 844 845 845 845 846 846 847 848 849 850 850
810 813 815 817 819 821 823 825 826 828 829 831 832 833 835 836 837 838 838 839 840 841 842 843 844 844 844 844 845 845 845 845 846 846 846 847 847 848 849 849 850 851
811 813 814 817 819 821 823 825 827 828 829 831 832 833 834 835 836 838 838 839 840 841 842 843 844 844 845 845 846 846 846 846 846 847 847 848 848 848 849 850 850 851
812 814 815 817 819 820 823 825 827 829 829 831 832 834 834 835 836 838 839 839 840 841 843 843 844 844 845 845 846 846 847 846 847 847 847 848 849 849 849 850 850 851
813 815 816 818 819 820 822 824 826 829 830 832 833 834 835 835 836 838 838 839 840 841 843 843 844 844 844 845 846 846 847 847 847 848 848 848 849 849 849 850 850 851
812 814 815 818 819 821 823 825 827 829 831 833 834 835 835 836 837 838 838 839 840 841 842 843 844 844 845 845 846 846 847 847 847 848 848 848 849 849 849 850 850 851
811 813 815 817 819 821 824 826 827 829 831 833 835 835 836 836 837 838 839 840 841 841 842 843 844 845 845 846 846 847 847 847 848 848 848 848 848 849 849 850 850 851
810 813 815 818 820 823 825 826 827 828 830 833 835 836 836 836 837 839 839 840 841 841 842 843 844 845 845 846 847 847 848 848 848 848 848 848 848 848 849 849 850 851
811 814 816 818 821 824 825 827 828 828 830 832 834 836 836 836 837 838 840 841 841 842 843 843 844 845 846 846 847 847 848 848 848 848 848 848 849 849 849 849 850 851
812 816 818 820 823 825 826 827 828 829 830 832 834 835 835 836 837 838 839 841 842 842 843 844 845 845 846 846 847 847 847 848 848 848 848 849 849 849 850 850 851 851
816 818 820 822 825 827 827 828 829 829 830 831 833 834 836 837 838 838 840 842 843 844 844 845 845 846 846 847 847 847 847 848 848 848 849 849 849 849 850 850 850 851
819 819 821 824 826 828 829 830 830 830 830 832 833 834 837 838 839 839 840 842 843 845 845 846 846 846 847 847 847 847 847 848 848 849 849 849 849 849 850 850 850 850
822 822 824 826 827 829 830 831 832 832 832 833 834 835 838 840 840 840 841 842 843 844 845 846 846 847 847 847 847 847 848 848 849 849 849 849 849 849 850 850 849 849
823 825 827 828 828 829 830 832 833 833 834 834 835 837 839 841 841 841 841 842 842 843 844 844 845 846 846 846 847 847 847 848 849 849 849 849 849 849 849 849 848 848
825 827 830 830 831 831 831 833 834 834 835 835 836 838 840 842 842 842 842 842 843 844 844 844 844 845 845 846 846 846 846 847 848 848 848 848 849 848 849 849 848 847
829 830 831 832 832 832 833 835 836 837 836 836 837 838 840 842 843 843 842 843 844 846 846 845 844 845 845 846 845 845 845 846 847 848 848 848 848 848 848 848 847 847
Wind_Speed
13 12 11 11 10 10 9 9 9 8 8 7 7 7 7 8 7 7 6 6 7 8 8 9 10 10 10 10 10 8 8 9 9 9 9 9 8 7 8 8 10 11
13 11 11 10 9 9 9 8 8 8 7 6 6 6 6 7 7 6 6 7 8 8 9 9 10 11 11 10 10 9 8 10 9 8 9 9 8 8 8 8 10 11
13 12 11 10 10 10 9 9 8 7 6 5 5 5 5 6 6 6 6 6 8 9 10 9 10 10 10 10 11 10 10 11 10 9 9 9 9 9 8 7 8 11
13 12 12 11 10 11 10 9 8 7 6 6 5 4 5 5 6 6 5 5 7 9 9 9 9 9 8 9 10 10 10 11 10 9 9 8 9 9 8 8 8 10
14 12 12 12 12 12 12 10 9 8 7 7 6 5 5 6 6 6 5 5 5 6 7 8 8 8 7 8 9 10 10 10 9 10 9 8 8 8 8 8 9 10
15 13 13 13 13 14 13 11 10 9 8 7 6 6 6 6 5 5 4 4 5 6 6 7 7 7 7 8 8 9 10 9 9 9 9 9 8 8 8 9 9 10
15 14 14 13 14 14 14 12 12 11 9 8 7 6 7 6 5 4 3 4 5 6 7 8 8 8 7 8 8 8 8 8 8 8 8 8 8 8 8 8 9 10
14 15 14 13 14 14 14 13 12 11 10 9 8 7 6 6 5 4 4 5 6 6 7 7 7 8 7 7 8 8 7 7 7 7 8 7 7 8 8 8 8 9
14 14 14 13 13 13 14 14 13 12 10 9 8 7 7 6 5 5 5 6 6 6 7 6 6 7 7 6 6 7 7 6 6 6 7 8 8 8 8 7 7 8
13 14 14 14 13 13 14 14 13 12 10 9 8 8 7 6 6 6 6 6 7 7 7 6 6 7 7 7 7 7 7 7 7 7 7 8 8 8 7 7 6 7
13 13 14 13 13 13 14 13 12 12 11 9 8 8 8 7 7 6 7 7 7 7 7 6 6 6 6 7 7 7 8 7 7 7 7 7 7 7 7 6 6 6
13 13 13 13 12 13 13 13 12 12 11 9 8 9 9 7 7 6 7 8 8 7 7 7 6 6 6 7 7 7 7 7 7 7 6 6 6 6 6 5 6 6
12 13 14 14 14 13 13 12 12 12 10 9 9 9 8 7 7 6 6 7 8 7 6 6 5 5 6 6 7 7 7 7 7 6 6 6 5 5 5 5 5 6
11 12 14 14 14 15 14 13 11 10 9 9 9 9 8 8 7 7 7 7 7 7 6 5 4 4 5 5 6 6 6 7 7 8 7 6 6 5 5 5 6 6
12 13 14 15 16 17 17 16 13 10 9 9 8 8 8 8 7 7 7 7 7 6 5 4 3 4 5 5 4 5 6 7 8 8 8 7 7 6 6 6 6 6
19 18 18 18 19 18 18 17 13 10 8 7 7 7 8 8 7 6 6 6 7 6 5 4 4 4 5 6 5 4 3 5 7 8 8 7 7 6 6 6 6 6
23 22 21 20 20 19 17 16 14 12 10 7 6 6 7 7 7 6 5 6 7 7 5 5 4 3 4 5 5 4 2 3 4 6 6 6 6 6 6 6 6 6
23 22 21 19 18 17 17 16 15 15 13 10 8 7 7 9 9 8 8 8 9 9 7 6 5 4 3 3 3 3 3 2 3 4 5 5 5 5 5 6 6 5
22 21 20 19 18 17 17 16 15 15 15 14 12 9 9 11 12 12 12 11 12 12 11 9 7 5 4 3 2 2 2 3 2 3 4 4 3 3 3 3 4 4
24 22 21 20 19 18 18 18 17 17 17 15 14 13 12 13 14 14 14 13 13 13 13 12 10 7 5 3 2 2 3 2 1 0 1 2 2 2 2 2 2 3
25 24 22 19 18 20 20 20 20 20 19 17 16 15 15 14 15 16 15 14 13 12 12 12 11 8 7 5 3 2 3 2 2 1 0 0 0 0 1 1 2 3
22 23 23 20 18 18 18 18 20 20 20 19 18 17 16 14 15 16 15 14 13 11 11 10 9 8 6 5 4 3 3 3 3 2 2 1 1 1 1 1 1 2
23 24 24 23 22 20 17 17 17 18 19 20 19 19 17 15 15 15 15 14 12 11 10 8 6 6 5 5 4 3 3 4 3 1 1 1 1 2 2 1 3 5
24 22 20 20 21 21 19 17 16 18 19 18 17 16 15 13 13 12 12 12 11 9 8 6 4 4 4 4 3 3 3 3 3 2 1 2 2 3 3 3 6 9
22 21 19 18 17 17 16 14 13 14 14 12 11 10 10 9 8 7 8 8 8 7 6 4 3 3 4 4 4 4 3 3 3 3 3 3 4 4 4 4 6 9
18 18 17 17 16 16 14 11 9 8 8 7 6 5 4 5 4 3 3 3 2 2 2 3 3 3 6 6 6 6 4 3 3 3 3 4 5 6 6 6 6 7
Wind_Direction
178 180 181 178 173 169 163 157 154 154 154 154 154 154 156 156 155 163 172 173 176 176 175 174 170 174 180 183 186 187 193 198 195 197 201 206 207 207 210 203 202 211
178 178 176 172 166 158 151 145 143 145 146 145 146 148 150 150 152 162 171 176 183 179 173 171 170 173 178 180 179 178 191 197 193 198 205 203 203 203 204 200 197 196
178 174 168 163 155 147 142 139 138 139 142 141 142 148 151 153 156 160 163 171 178 178 174 171 170 174 178 179 178 180 185 186 186 197 206 204 201 195 192 194 193 190
173 167 161 157 150 147 146 146 145 143 146 148 146 147 151 157 158 155 156 164 174 177 178 178 176 177 183 183 184 187 185 182 184 192 201 205 201 188 181 188 186 187
169 164 162 159 154 156 157 157 156 153 151 149 144 143 151 159 161 156 155 164 175 181 183 186 185 184 189 189 189 189 184 182 183 190 197 199 196 185 177 182 183 183
169 167 167 164 161 164 165 164 164 161 157 153 147 147 150 157 164 161 163 171 178 185 186 189 190 189 192 191 187 184 183 182 182 191 199 194 189 187 181 182 182 182
171 172 172 171 170 171 169 166 166 164 161 157 154 153 152 158 166 165 171 177 178 182 181 183 186 184 186 186 181 178 179 181 182 189 194 189 186 185 182 179 178 178
173 175 177 177 175 175 171 166 167 167 164 162 159 158 158 161 165 163 170 175 175 174 170 172 176 174 172 175 175 172 170 171 176 182 183 180 178 176 172 169 171 173
170 174 178 179 176 175 172 167 167 168 166 165 163 162 162 161 157 159 165 170 170 164 155 154 159 158 154 155 159 161 160 160 165 172 172 167 163 161 159 158 165 170
163 170 174 175 174 173 170 166 166 166 165 165 164 162 161 158 155 157 158 164 169 166 156 150 151 154 152 151 151 150 152 155 155 155 156 157 156 154 152 150 155 163
156 164 167 168 168 168 168 167 164 163 162 162 162 161 159 156 158 163 162 163 167 169 167 163 160 161 163 164 161 155 152 152 151 149 149 149 148 147 144 142 144 151
149 151 154 155 157 158 162 165 162 159 159 159 158 158 157 158 161 166 170 168 168 171 174 173 168 164 164 166 166 163 161 157 153 152 152 147 145 145 143 140 144 149
143 149 155 158 159 156 154 154 155 156 154 152 156 155 152 154 155 160 169 169 166 166 167 168 168 166 162 165 165 163 164 166 164 161 160 155 153 155 154 151 152 151
123 139 152 156 156 152 144 137 138 146 146 144 150 152 147 143 143 149 158 161 162 165 164 161 161 161 163 169 173 172 171 173 175 175 174 171 169 166 162 164 164 156
133 132 137 142 146 146 143 137 128 126 136 146 150 149 143 137 138 145 151 156 159 158 148 142 148 157 166 170 168 174 182 183 184 185 183 179 178 173 166 167 168 162
143 136 135 139 141 140 141 140 133 125 126 137 147 147 140 135 135 140 148 154 150 138 132 153 174 179 181 181 170 162 172 180 186 190 189 183 179 174 168 168 169 167
140 137 137 139 138 139 141 145 150 152 144 132 129 127 123 125 128 129 133 133 124 121 136 161 170 172 179 188 189 182 166 159 174 183 186 185 181 179 180 180 179 178
138 134 133 135 140 148 152 153 157 157 153 150 145 129 110 109 110 105 104 103 100 107 122 129 134 147 159 172 194 199 182 166 171 170 171 180 185 187 189 183 180 183
134 131 129 132 138 146 148 150 150 146 144 146 147 141 122 114 112 103 95 93 95 103 111 112 114 120 128 141 160 175 170 164 175 174 170 175 180 190 199 185 183 193
124 125 125 128 132 135 136 137 137 133 130 128 126 124 116 113 117 111 97 89 92 101 104 103 102 103 105 119 131 148 158 145 122 166 165 164 165 188 219 215 216 232
114 116 114 112 117 121 123 126 127 125 123 118 113 111 107 104 110 111 103 91 87 91 92 90 89 93 102 112 114 135 143 106 45 12 38 24 50 57 274 259 259 267
108 110 108 104 105 105 105 110 114 114 115 115 112 109 106 103 105 108 107 101 95 90 85 81 80 81 86 93 100 118 109 70 40 31 47 39 33 15 328 303 302 298
105 105 107 108 107 102 96 95 97 99 104 107 108 106 104 102 103 106 108 109 109 104 92 79 69 65 66 63 66 84 85 57 30 23 32 15 349 329 323 305 276 276
104 103 103 104 106 106 105 103 101 102 103 103 102 102 102 100 98 99 103 106 108 110 108 97 64 37 26 27 22 19 39 32 3 340 329 322 311 295 289 281 275 277
103 106 106 105 103 102 102 102 105 109 110 111 110 110 111 109 102 95 93 92 87 85 88 88 67 9 345 351 350 341 1 12 343 323 313 309 306 294 284 277 279 284
97 100 102 104 103 101 96 86 82 91 101 108 116 122 121 121 127 125 110 109 110 72 28 34 43 359 333 335 337 332 340 3 3 338 319 316 308 293 285 275 267 276